Regional Weather Roundup
Issued by NWS Albany, NY

Home | Current Version | Previous Version | Text Only | Print | Product List | Glossary On
Versions: 1 2 3 4 5 6 7 8 9 10 11 12 13 14 15 16 17 18 19 20 21 22 23 24 25 26 27
000
ASUS41 KALY 250010
RWRALY

NEW YORK STATE HOURLY WEATHER ROUNDUP
NATIONAL WEATHER SERVICE ALBANY NY
800 PM EDT WED MAY 24 2017

NOTE: "FAIR" INDICATES FEW OR NO CLOUDS BELOW 12,000 FEET WITH NO
SIGNIFICANT WEATHER AND/OR NO OBSTRUCTIONS TO VISIBILITY.

NYZ032-033-038>043-046>054-057>066-NYZ062>081-082-084-250100-
EAST


CITY           SKY/WX    TMP DP  RH WIND       PRES   REMARKS
ALBANY         PTCLDY    71  46  40 SE6       29.76R
GLENS FALLS    NOT AVBL
POUGHKEEPSIE   CLOUDY    67  49  52 S6        29.76R
MONTGOMERY     PTCLDY    65  49  56 S6        29.77R
WHITE PLAINS   CLOUDY    62  47  57 E6        29.79R
ISLIP          CLOUDY    59  51  75 E10       29.80R
NEW YORK CITY  MOCLDY    65  49  56 SE6       29.79R
CENTRAL PARK   PTCLDY    62  51  67 S3        29.82R
$$

NYZ005>009-017-018-044>046-055-056-250100-
CENTRAL


CITY           SKY/WX    TMP DP  RH WIND       PRES   REMARKS
FULTON         CLEAR     72  50  45 CALM      29.69R
SYRACUSE       PTCLDY    70  50  49 E6        29.68R
ROME           CLEAR     70  50  49 E7        29.72S
ELMIRA         CLEAR     70  47  43 S7        29.68S
BINGHAMTON     CLOUDY    64  47  53 SE12      29.74S
MONTICELLO     CLOUDY    63  48  59 S7        29.80R
$$

NYZ026>034-041>043-087-250100-
NORTH


CITY           SKY/WX    TMP DP  RH WIND       PRES   REMARKS
WATERTOWN      MOCLDY    70  53  54 NE7       29.70S
FORT DRUM      NOT AVBL
OGDENSBURG     FAIR      68  53  58 NE3       29.73S
MASSENA        MOCLDY    68  54  60 NE6       29.76R
SARANAC LAKE   CLEAR     64  50  60 NE6       29.77R
PLATTSBURGH    CLOUDY    66  52  60 CALM      29.76R
$$

NYZ001>004-010>016-019>021-085-250100-
WEST


CITY           SKY/WX    TMP DP  RH WIND       PRES   REMARKS
NIAGARA FALLS  CLOUDY    73  52  47 CALM      29.60R
BUFFALO        MOCLDY    73  44  35 SE10      29.61R
DUNKIRK        CLOUDY    63  58  83 CALM      29.60R
JAMESTOWN      MOCLDY    64  46  52 SE8G18    29.63R
WELLSVILLE     CLOUDY    65  45  48 SE15G24   29.69S
ROCHESTER      CLOUDY    73  45  36 SE13      29.64F
PENN YAN       PTCLDY    69  44  40 SE7       29.68S
$$

             KEY
       WCI = WIND CHILL INDEX
       VSB = VISIBILITY
       HX  = HEAT INDEX
$$




USA.gov is the U.S. government's official web portal to all federal, state and local government web resources and services.